Terminal Aerodrome Forecast
Issued by NWS Billings, MT

Home | Current Version | Previous Version | Text Only | Print | Product List | Glossary On
Versions: 1 2 3 4 5 6 7 8 9 10 11 12 13 14 15 16 17 18 19 20 21 22 23 24 25
000
FTUS45 KBYZ 281723
TAFSHR
TAF
KSHR 281723Z 2818/2918 30007KT P6SM VCTS FEW045CB BKN080
     FM290700 32010KT P6SM VCSH FEW020 BKN040=

USA.gov is the U.S. government's official web portal to all federal, state and local government web resources and services.